Mount Pleasant, IA

9:06 AM CDT on August 29, 2016 (GMT -0500)
Mount Pleasant Municipal

Weather History for KMPZ - October, 2014

Change the Weather History Date:

Friday, October 31, 2014

  Actual Average Record
Temperature  
Mean Temperature 37 °F -  
Max Temperature 47 °F 61 °F 88 °F (1950)
Min Temperature 26 °F 42 °F 19 °F (1954)
Degree Days  
Heating Degree Days 28    
Moisture  
Dew Point 22 °F    
Average Humidity 57    
Maximum Humidity 79    
Minimum Humidity 39    
Precipitation  
Precipitation 0.00 in - - ()
Sea Level Pressure  
Sea Level Pressure 30.35 in    
Wind  
Wind Speed 16 mph (NNW)    
Max Wind Speed 26 mph    
Max Gust Speed 37 mph    
Visibility 10 miles    
Events      
Averages and records for this station are not official NWS values.
T = Trace of Precipitation, MM = Missing Value Source: NWS Daily Summary

Daily Weather History Graph

Daily Weather History Graph

Search for Another Location

Airport or City:

Trip Planner

Search our weather history database for the weather conditions in past years. The results will help you decide how hot, cold, wet, or windy it might be!

Date:

Astronomy

Oct. 31, 2014 Rise Set
Actual Time 7:35 AM CDT 6:03 PM CDT
Civil Twilight 7:07 AM CDT 6:31 PM CDT
Nautical Twilight 6:34 AM CDT 7:03 PM CDT
Astronomical Twilight 6:02 AM CDT 7:35 PM CDT
Moon 2:20 PM CDT (10/31) 12:21 AM CDT (10/31)
Length of Visible Light 11h 24m
Length of Day
10h 27m
First Quarter, 57% of the Moon is Illuminated
Oct 31
First Quarter
Nov 6
Full
Nov 14
Last Quarter
Nov 22
New
Nov 29
First Quarter

Hourly Weather History & Observations

Time (CDT) Temp. Windchill Dew Point Humidity Pressure Visibility Wind Dir Wind Speed Gust Speed Precip Events Conditions
12:15 AM 46.4 °F 44.3 °F 40.3 °F 79% 30.14 in 10.0 mi NW 4.6 mph - N/A   Overcast
12:35 AM 46.4 °F 44.3 °F 40.1 °F 79% 30.14 in 10.0 mi NW 4.6 mph - N/A   Overcast
12:55 AM 46.6 °F - 39.4 °F 76% 30.15 in 10.0 mi NW 11.5 mph 17.3 mph N/A   Overcast
1:15 AM 47.3 °F - 38.5 °F 71% 30.15 in 10.0 mi NNW 16.1 mph - N/A   Overcast
1:35 AM 47.3 °F - 37.6 °F 69% 30.16 in 10.0 mi NNW 15.0 mph - N/A   Overcast
1:55 AM 46.9 °F - 37.6 °F 70% 30.17 in 10.0 mi NNW 15.0 mph 23.0 mph N/A   Overcast
2:15 AM 46.8 °F - 37.2 °F 69% 30.18 in 10.0 mi NNW 19.6 mph 24.2 mph N/A   Overcast
2:35 AM 44.8 °F 35.7 °F 32.0 °F 61% 30.18 in 10.0 mi NNW 25.3 mph 35.7 mph N/A   Overcast
2:55 AM 44.2 °F 35.2 °F 32.0 °F 62% 30.19 in 10.0 mi NNW 24.2 mph 31.1 mph N/A   Overcast
3:15 AM 43.7 °F 34.5 °F 29.7 °F 58% 30.20 in 10.0 mi NNW 24.2 mph 33.4 mph N/A   Overcast
3:35 AM 42.8 °F 34.5 °F 28.4 °F 57% 30.20 in 10.0 mi NNW 18.4 mph 28.8 mph N/A   Overcast
3:55 AM 42.1 °F 32.3 °F 26.4 °F 54% 30.21 in 10.0 mi NW 24.2 mph 33.4 mph N/A   Overcast
4:15 AM 39.6 °F 28.5 °F 23.4 °F 52% 30.22 in 10.0 mi NNW 26.5 mph 36.8 mph N/A   Scattered Clouds
4:35 AM 38.5 °F 27.1 °F 23.5 °F 55% 30.24 in 10.0 mi NNW 26.5 mph 35.7 mph N/A   Scattered Clouds
4:55 AM 37.4 °F 26.4 °F 23.7 °F 58% 30.25 in 10.0 mi NNW 23.0 mph 32.2 mph N/A   Scattered Clouds
5:15 AM 35.8 °F 23.9 °F 21.6 °F 56% 30.27 in 10.0 mi NW 24.2 mph 32.2 mph N/A   Clear
5:35 AM 33.1 °F 19.8 °F 17.4 °F 53% 30.28 in 10.0 mi NNW 26.5 mph 33.4 mph N/A   Clear
5:55 AM 32.0 °F 18.9 °F 16.7 °F 53% 30.30 in 10.0 mi NNW 24.2 mph 29.9 mph N/A   Clear
6:15 AM 31.8 °F 19.6 °F 16.5 °F 53% 30.30 in 10.0 mi NNW 20.7 mph 28.8 mph N/A   Clear
6:35 AM 31.1 °F 18.6 °F 16.2 °F 54% 30.31 in 10.0 mi NNW 20.7 mph 27.6 mph N/A   Clear
6:55 AM 30.7 °F 18.8 °F 16.9 °F 56% 30.32 in 10.0 mi NNW 18.4 mph 26.5 mph N/A   Clear
7:15 AM 30.4 °F 18.0 °F 17.6 °F 59% 30.33 in 10.0 mi NNW 19.6 mph 26.5 mph N/A   Clear
7:35 AM 30.2 °F 17.4 °F 18.5 °F 62% 30.33 in 10.0 mi NNW 20.7 mph 27.6 mph N/A   Clear
7:55 AM 30.0 °F 16.9 °F 18.9 °F 63% 30.34 in 10.0 mi NNW 21.9 mph 28.8 mph N/A   Clear
8:15 AM 30.6 °F 19.0 °F 19.2 °F 63% 30.35 in 10.0 mi NNW 17.3 mph 27.6 mph N/A   Clear
8:35 AM 30.7 °F 18.5 °F 19.6 °F 63% 30.35 in 10.0 mi NNW 19.6 mph 27.6 mph N/A   Clear
8:55 AM 31.6 °F 19.7 °F 20.3 °F 63% 30.36 in 10.0 mi NNW 19.6 mph 27.6 mph N/A   Clear
9:15 AM 32.0 °F 19.8 °F 20.5 °F 63% 30.37 in 10.0 mi NNW 20.7 mph 25.3 mph N/A   Clear
9:35 AM 32.9 °F 20.7 °F 20.5 °F 60% 30.37 in 10.0 mi NNW 21.9 mph 27.6 mph N/A   Clear
9:55 AM 33.8 °F 22.2 °F 20.8 °F 59% 30.37 in 10.0 mi North 20.7 mph 28.8 mph N/A   Clear
10:15 AM 34.7 °F 22.2 °F 21.0 °F 57% 30.38 in 10.0 mi NNW 25.3 mph - N/A   Clear
10:35 AM 35.4 °F 23.7 °F 21.4 °F 57% 30.39 in 10.0 mi NNW 23.0 mph 28.8 mph N/A   Clear
10:55 AM 36.0 °F 24.7 °F 21.0 °F 55% 30.39 in 10.0 mi North 21.9 mph 31.1 mph N/A   Clear
11:15 AM 37.0 °F 26.2 °F 20.8 °F 52% 30.40 in 10.0 mi North 21.9 mph 28.8 mph N/A   Clear
11:35 AM 37.6 °F 27.1 °F 20.3 °F 50% 30.40 in 10.0 mi North 20.7 mph 26.5 mph N/A   Clear
11:55 AM 38.1 °F 27.6 °F 20.7 °F 49% 30.40 in 10.0 mi NNW 21.9 mph 26.5 mph N/A   Clear
12:15 PM 38.7 °F 29.1 °F 21.0 °F 49% 30.39 in 10.0 mi NNW 18.4 mph 26.5 mph N/A   Clear
12:35 PM 39.2 °F 29.8 °F 20.7 °F 47% 30.39 in 10.0 mi NNW 18.4 mph 26.5 mph N/A   Clear
12:55 PM 40.3 °F 31.3 °F 20.8 °F 46% 30.38 in 10.0 mi North 18.4 mph 26.5 mph N/A   Clear
1:15 PM 40.3 °F 31.6 °F 20.5 °F 45% 30.39 in 10.0 mi NNW 17.3 mph 27.6 mph N/A   Clear
1:35 PM 40.6 °F 32.0 °F 19.0 °F 42% 30.38 in 10.0 mi NNW 17.3 mph 31.1 mph N/A   Clear
1:55 PM 41.0 °F 32.8 °F 19.6 °F 42% 30.38 in 10.0 mi NW 16.1 mph 25.3 mph N/A   Clear
2:15 PM 42.1 °F 32.8 °F 19.8 °F 41% 30.38 in 10.0 mi NNW 21.9 mph 28.8 mph N/A   Clear
2:35 PM 41.5 °F 32.4 °F 19.2 °F 41% 30.38 in 10.0 mi NNW 20.7 mph 27.6 mph N/A   Clear
2:55 PM 42.3 °F 33.1 °F 19.4 °F 40% 30.38 in 10.0 mi NNW 21.9 mph 28.8 mph N/A   Clear
3:15 PM 42.4 °F 33.8 °F 18.9 °F 39% 30.38 in 10.0 mi NNW 19.6 mph 25.3 mph N/A   Clear
3:35 PM 42.4 °F 34.7 °F 19.6 °F 40% 30.38 in 10.0 mi NNW 16.1 mph 24.2 mph N/A   Scattered Clouds
3:55 PM 42.1 °F 33.3 °F 18.9 °F 39% 30.38 in 10.0 mi NNW 19.6 mph 26.5 mph N/A   Clear
4:15 PM 42.1 °F 33.1 °F 19.0 °F 40% 30.38 in 10.0 mi NNW 20.7 mph 25.3 mph N/A   Scattered Clouds
4:35 PM 41.9 °F 33.4 °F 19.4 °F 41% 30.39 in 10.0 mi North 18.4 mph - N/A   Clear
4:55 PM 41.2 °F 33.0 °F 19.2 °F 41% 30.39 in 10.0 mi NNW 16.1 mph 24.2 mph N/A   Clear
5:15 PM 40.6 °F 31.7 °F 19.2 °F 42% 30.40 in 10.0 mi North 18.4 mph 26.5 mph N/A   Clear
5:35 PM 39.7 °F 31.5 °F 19.0 °F 43% 30.40 in 10.0 mi North 15.0 mph - N/A   Clear
5:55 PM 38.7 °F 31.4 °F 19.4 °F 46% 30.40 in 10.0 mi North 11.5 mph 18.4 mph N/A   Clear
6:15 PM 37.0 °F 29.3 °F 20.7 °F 52% 30.41 in 10.0 mi North 11.5 mph 17.3 mph N/A   Clear
6:35 PM 36.3 °F 28.4 °F 20.3 °F 52% 30.41 in 10.0 mi North 11.5 mph 16.1 mph N/A   Clear
6:55 PM 34.7 °F 26.9 °F 20.3 °F 56% 30.42 in 10.0 mi NNW 10.4 mph - N/A   Clear
7:15 PM 33.1 °F 26.1 °F 20.8 °F 61% 30.42 in 10.0 mi North 8.1 mph - N/A   Clear
7:35 PM 32.9 °F 25.9 °F 21.2 °F 62% 30.43 in 10.0 mi North 8.1 mph - N/A   Clear
7:55 PM 32.0 °F 24.8 °F 20.7 °F 63% 30.43 in 10.0 mi North 8.1 mph - N/A   Clear
8:15 PM 31.1 °F 23.1 °F 20.8 °F 66% 30.43 in 10.0 mi North 9.2 mph - N/A   Clear
8:35 PM 32.0 °F 24.8 °F 20.3 °F 62% 30.43 in 10.0 mi North 8.1 mph - N/A   Clear
8:55 PM 30.9 °F 23.5 °F 20.3 °F 65% 30.43 in 10.0 mi North 8.1 mph - N/A   Clear
9:15 PM 31.8 °F 23.9 °F 20.1 °F 62% 30.43 in 10.0 mi North 9.2 mph - N/A   Clear
9:35 PM 29.5 °F 22.5 °F 20.8 °F 70% 30.44 in 10.0 mi NNW 6.9 mph - N/A   Clear
9:55 PM 28.9 °F 21.9 °F 20.1 °F 70% 30.44 in 10.0 mi North 6.9 mph - N/A   Clear
10:15 PM 29.7 °F 22.0 °F 20.1 °F 68% 30.44 in 10.0 mi NNW 8.1 mph - N/A   Clear
10:35 PM 28.0 °F 20.8 °F 20.3 °F 73% 30.45 in 10.0 mi NNW 6.9 mph - N/A   Clear
10:55 PM 28.0 °F 20.0 °F 20.3 °F 73% 30.45 in 10.0 mi North 8.1 mph - N/A   Clear
11:15 PM 27.9 °F 20.6 °F 20.3 °F 73% 30.46 in 10.0 mi NNW 6.9 mph - N/A   Clear
11:35 PM 28.2 °F 21.0 °F 20.1 °F 72% 30.46 in 10.0 mi NNW 6.9 mph - N/A   Clear
11:55 PM 26.2 °F 17.8 °F 19.9 °F 77% 30.45 in 10.0 mi North 8.1 mph - N/A   Clear